"Pseudo-MPEC" for W00PMmI

Created 2019 Jul 12 20:07:17 UT using Find_Orb

Click here for an explanation of pseudo-MPECs

 
 Astrometry: 
     W00PMmI ^C2019 07 10.43939918 43 56.430+50 28 35.46   ~7B07 21.40GVNEOCP568
     W00PMmI ^C2019 07 10.44127618 43 55.963+50 28 33.07   ~7B07 21.31GVNEOCP568
     W00PMmI ^C2019 07 10.44246618 43 55.651+50 28 31.32   ~7B07 21.66GVNEOCP568
     W00PMmI ^C2019 07 10.44364918 43 55.341+50 28 29.56   ~7B07 21.40GVNEOCP568
     W00PMmI ^C2019 07 11.43392518 40 03.774+50 05 27.54   ~7BJb 21.57GVNEOCP568
     W00PMmI ^C2019 07 11.43538518 40 03.413+50 05 25.40   ~7BJb 21.56GVNEOCP568
     W00PMmI ^C2019 07 11.43656718 40 03.118+50 05 23.69   ~7BJb 21.68GVNEOCP568
     W00PMmI  C2019 07 12.34811018 36 35.38 +49 43 02.9    ~7C9M 21.7 GVNEOCPH01
     W00PMmI  C2019 07 12.35126318 36 34.60 +49 42 57.8    ~7C9M 21.1 GVNEOCPH01
     W00PMmI  C2019 07 12.36924018 36 30.33 +49 42 30.0    ~7C9M 21.2 GVNEOCPH01
     W00PMmI  C2019 07 12.37545318 36 28.85 +49 42 20.1    ~7C9M 21.9 GVNEOCPH01
     W00PMmI ^C2019 07 12.51043418 35 58.509+49 39 04.03   ~7CHq 21.65GVNEOCP568
     W00PMmI ^C2019 07 12.51161818 35 58.225+49 39 02.12   ~7CHq 21.71GVNEOCP568
     W00PMmI ^C2019 07 12.51279818 35 57.951+49 39 00.27   ~7CHq 21.61GVNEOCP568

Station data:
(568) Mauna Kea  (N19.826116 W155.472200)  US/Hawaii.
(H01) Magdalena Ridge Observatory, Socorro  (N33.984833 W107.189333)  US/New
   Mexico.  Observers W. H. Ryan, E. V. Ryan. Measurer W. H. Ryan. 2.4-m
   f/8.9 reflector + CCD.

Orbital elements:  W00PMmI
   Perihelion 2019 Mar 10.369114 +/- 0.893 TT =  8:51:31 (JD 2458552.869114)
Epoch 2019 Jul 12.0 TT = JDT 2458676.5   Earth MOID: 0.0941   Ve: 0.0445
M 146.04920947 +/- 0.6              (J2000 ecliptic)          AutoNEOCP
n   1.18133270 +/- 0.00391          Peri.  281.07987 +/- 0.55
a   0.88624656 +/- 0.00196          Node   207.33125 +/- 0.7
e   0.3162495 +/- 0.0113            Incl.   14.27825 +/- 0.49
P   0.83/304.73d           H 22.2   G  0.15   U  9.0  
q 0.60597150 +/- 0.0114    Q 1.16652162 +/- 0.00749
From 14 observations 2019 July 10-12; mean residual 0".08
Residuals in arcseconds: 
190710 568  .04-  .08-    190711 568  .00   .01-    190712 H01  .17-  .05-    
190710 568  .09+  .13+    190711 568  .00   .00     190712 568  .03+  .02-    
190710 568  .02+  .03+    190712 H01  .23+  .11+    190712 568  .01-  .05-    
190710 568  .05-  .09-    190712 H01  .05-  .10-    190712 568  .05+  .02-    
190711 568  .02-  .01+    190712 H01  .07-  .12+    

Ephemerides (geocentric):
Date (UTC) HH   RA              Dec         delta   r     elong  mag " sig PA
---- -- -- --  -------------   -----------  ------ ------ -----  --- ---- ---
2019 07 12 20  18 34 48.815   +49 30 45.28  .29253 1.1398 107.6 21.9 .879  97
2019 07 12 21  18 34 39.639   +49 29 41.73  .29259 1.1398 107.6 21.9 .907  96
2019 07 12 22  18 34 30.476   +49 28 38.08  .29265 1.1399 107.6 21.9 .937  94
2019 07 12 23  18 34 21.325   +49 27 34.32  .29271 1.1400 107.7 21.9 .967  93
2019 07 13 00  18 34 12.187   +49 26 30.44  .29277 1.1401 107.7 21.9 1.00  91
2019 07 13 01  18 34 03.062   +49 25 26.45  .29283 1.1402 107.7 21.9 1.03  90
2019 07 13 02  18 33 53.949   +49 24 22.34  .29289 1.1402 107.7 21.9 1.07  89
2019 07 13 03  18 33 44.849   +49 23 18.13  .29295 1.1403 107.7 21.9 1.10  88
2019 07 13 04  18 33 35.761   +49 22 13.80  .29301 1.1404 107.7 21.9 1.14  86
2019 07 13 05  18 33 26.686   +49 21 09.36  .29307 1.1405 107.7 21.9 1.18  85
2019 07 13 06  18 33 17.624   +49 20 04.81  .29312 1.1406 107.7 21.9 1.21  84
2019 07 13 07  18 33 08.575   +49 19 00.15  .29318 1.1406 107.7 21.9 1.25  83
2019 07 13 08  18 32 59.538   +49 17 55.38  .29324 1.1407 107.8 21.9 1.29  82
2019 07 13 09  18 32 50.513   +49 16 50.50  .29330 1.1408 107.8 21.9 1.34  81
2019 07 13 10  18 32 41.502   +49 15 45.50  .29336 1.1409 107.8 21.9 1.38  81
2019 07 13 11  18 32 32.503   +49 14 40.40  .29342 1.1409 107.8 21.9 1.42  80
2019 07 13 12  18 32 23.516   +49 13 35.19  .29348 1.1410 107.8 21.9 1.47  79
2019 07 13 13  18 32 14.543   +49 12 29.86  .29354 1.1411 107.8 21.9 1.51  78
2019 07 13 14  18 32 05.582   +49 11 24.43  .29360 1.1412 107.8 21.9 1.56  77
2019 07 13 15  18 31 56.633   +49 10 18.88  .29366 1.1413 107.8 21.9 1.61  77
2019 07 13 16  18 31 47.698   +49 09 13.23  .29372 1.1413 107.8 21.9 1.65  76
2019 07 13 17  18 31 38.775   +49 08 07.47  .29378 1.1414 107.9 21.9 1.70  75
2019 07 13 18  18 31 29.865   +49 07 01.60  .29384 1.1415 107.9 21.9 1.75  75
2019 07 13 19  18 31 20.967   +49 05 55.62  .29389 1.1416 107.9 21.9 1.80  74
2019 07 13 20  18 31 12.082   +49 04 49.53  .29395 1.1416 107.9 21.9 1.85  74
2019 07 13 21  18 31 03.210   +49 03 43.33  .29401 1.1417 107.9 21.9 1.90  73
2019 07 13 22  18 30 54.351   +49 02 37.02  .29407 1.1418 107.9 21.9 1.96  73
2019 07 13 23  18 30 45.504   +49 01 30.61  .29413 1.1419 107.9 21.9 2.01  72
2019 07 14 00  18 30 36.670   +49 00 24.08  .29419 1.1420 107.9 21.9 2.07  72
2019 07 14 01  18 30 27.849   +48 59 17.45  .29425 1.1420 107.9 21.9 2.12  71
2019 07 14 02  18 30 19.040   +48 58 10.71  .29431 1.1421 108.0 21.9 2.18  71
2019 07 14 03  18 30 10.245   +48 57 03.87  .29437 1.1422 108.0 21.9 2.23  70
2019 07 14 04  18 30 01.462   +48 55 56.91  .29443 1.1423 108.0 21.9 2.29  70
2019 07 14 05  18 29 52.691   +48 54 49.85  .29449 1.1423 108.0 21.9 2.35  69
2019 07 14 06  18 29 43.934   +48 53 42.69  .29455 1.1424 108.0 21.9 2.41  69
2019 07 14 07  18 29 35.189   +48 52 35.41  .29461 1.1425 108.0 21.9 2.47  69
2019 07 14 08  18 29 26.457   +48 51 28.03  .29467 1.1426 108.0 21.9 2.53  68
2019 07 14 09  18 29 17.737   +48 50 20.54  .29473 1.1426 108.0 21.9 2.59  68
2019 07 14 10  18 29 09.031   +48 49 12.95  .29479 1.1427 108.0 21.9 2.65  68
2019 07 14 11  18 29 00.337   +48 48 05.25  .29485 1.1428 108.0 21.9 2.71  67
2019 07 14 12  18 28 51.656   +48 46 57.44  .29491 1.1429 108.1 21.9 2.78  67
2019 07 14 13  18 28 42.988   +48 45 49.53  .29497 1.1429 108.1 21.9 2.84  67
2019 07 14 14  18 28 34.332   +48 44 41.51  .29503 1.1430 108.1 21.9 2.91  66
2019 07 14 15  18 28 25.689   +48 43 33.39  .29509 1.1431 108.1 21.9 2.97  66
2019 07 14 16  18 28 17.059   +48 42 25.17  .29515 1.1432 108.1 21.9 3.04  66
2019 07 14 17  18 28 08.442   +48 41 16.83  .29521 1.1432 108.1 21.9 3.10  66
2019 07 14 18  18 27 59.837   +48 40 08.40  .29527 1.1433 108.1 21.9 3.17  65
2019 07 14 19  18 27 51.246   +48 38 59.85  .29533 1.1434 108.1 21.9 3.24  65